Location: ??????????
(54.8537°N, 38.8755°E)
Time: 02:42:09
(UTC+00:00)

Vanguard 2 Rocket - Pass Details

Date: 20 September 2024
Orbit: 553 x 3298 km, 32.9° (Epoch: 14 October)

Event Time Altitude Azimuth Distance (km) Brightness Sun altitude
Exits shadow 02:01:31 10° 241° (WSW) 4,612 9.8 -10.1°
Maximum altitude 02:11:06 23° 197° (SSW) 4,418 10.1 -8.7°
Drops below altitude 10° 02:23:41 10° 154° (SSE) 6,096 11.3 -7.0°
Sets 02:30:15 0° 143° (SE) 7,258 11.9 -6.1°
